[Iaude] MPEC P59: 2024 GC5 [a=2.45,e=0.51,i=10.1,H=20.08]
    mpec at cfa.harvard.edu 
    mpec at cfa.harvard.edu
       
    Sun Aug  4 10:47:30 EDT 2024
    
    
  
M.P.E.C. 2024-P59                                Issued 2024 August 4, 14:46 UT
     The Minor Planet Electronic Circulars contain information on unusual
         minor planets, routine data on comets and natural satellites,
         and occasional editorial announcements.  They are published
    on behalf of Division F of the International Astronomical Union by the
          Minor Planet Center, Smithsonian Astrophysical Observatory,
                          Cambridge, MA 02138, U.S.A.
			  
             Prepared using the Tamkin Foundation Computer Network
                              MPC at CFA.HARVARD.EDU
            URL https://www.minorplanetcenter.net/    ISSN 1523-6714
                                    2024 GC5                                    
                           Revision to MPEC 2024-G187                           
Additional Observations:
     K24G05C  C2005 07 28.45397 00 52 24.93 -22 09 49.0          20.7  oEP059644
     K24G05C  C2005 07 28.46507 00 52 25.95 -22 09 55.0          20.4  oEP059644
     K24G05C  C2005 07 28.47629 00 52 26.96 -22 10 01.3          20.5  oEP059644
     K24G05C  C2013 11 09.51680004 04 32.850+11 35 07.13         23.08GVEP059F51
     K24G05C  C2013 11 09.54699604 04 30.596+11 35 04.49         23.77GVEP059F51
     K24G05C  C2013 11 09.56216204 04 29.389+11 35 03.60         23.07GVEP059F51
     K24G05C  C2013 11 26.32308603 43 43.412+11 21 30.38         22.85GVEP059F51
     K24G05C  C2013 11 26.33835303 43 42.299+11 21 30.49               VEP059F51
     K24G05C  C2013 11 26.36904903 43 40.019+11 21 30.61               VEP059F51
Observer details:
644 Palomar Mountain/NEAT.  Observers R. Bambery, M. Hicks, K. Lawrence, E.
    Helin, R. Thicksten.  Measurer N. Team.  1.2-m Schmidt + CCD.
F51 Pan-STARRS 1, Haleakala.  Observers J. Herman, T. Lowe, P. Minguez, A.
    Schultz, I. Smith.  Measurers K. Chambers, T. de Boer, J. Fairlamb, H.
    Gao, M. Huber, C.-C. Lin, E. Magnier, Y. Ramanjooloo, R. Wainscoat, R.
    Weryk.  1.8-m Ritchey-Chretien + CCD.
First and last observations above in comparison with prediction:
Residuals in seconds of arc, reference and Delta-T
050728 644 74.3+ 75.0+    131126 F51  9.6+  5.0+    MPO845966   +0.00 days
Orbital elements:
2024 GC5                                                 Earth MOID = 0.1983 AU
Epoch 2024 Oct. 17.0 TT = JDT 2460600.5                 Veres                   
M  15.06609              (2000.0)            P               Q                  
n   0.25681890     Peri.  198.91251     +0.31119395     +0.93390530             
a   2.4512338      Node    89.52403     -0.84765978     +0.35650515             
e   0.5076906      Incl.   10.13774     -0.42968736     -0.02692516             
P   3.84           H   20.08          G   0.15           U   1                  
Residuals in seconds of arc
050728 644  0.2-  0.0     240412 106  0.0   0.1+    240430 I52  0.3-  0.6-
050728 644  0.1+  0.1+    240412 106  0.1+  0.2+    240503 G96  0.3+  0.0
050728 644  0.1+  0.1-    240412 106  0.9+  0.4-    240503 G96  0.2+  0.2-
131109 F51  0.3-  0.4+    240412 I52  0.3-  0.1-    240503 G96  0.1+  0.0
131109 F51  0.4+  0.2+    240412 I52  0.1-  0.4-    240503 G96  0.0   0.0
131109 F51  0.4-  0.5+    240412 858  0.3-  0.1-    240506 F52  0.1-  0.1-
131126 F51  0.2+  0.1-    240412 I52  0.5-  0.4+    240506 F52  0.1-  0.3-
131126 F51  0.2+  0.1+    240412 858  0.3+  0.4-    240506 F52  0.1+  0.0
131126 F51  0.5-  0.6+    240413 I52  0.1+  0.4+    240506 F52  0.1-  0.2-
240410 F51  0.0   0.1-    240413 I52  0.7+  0.1+    240514 I52  0.3-  0.2+
240410 F51  0.1+  0.0     240413 I52  0.1-  0.1+    240514 I52  0.1-  0.5+
240411 G96  0.1+  0.1+    240413 I52  0.7-  0.1+    240514 I52  0.3-  0.0
240411 G96  0.2-  0.1+    240414 I52  0.2-  0.1+    240514 I52  0.2+  0.1-
240411 G96  0.3-  0.1+    240414 I52  0.1-  0.4-    240529 V06  0.2+  0.0
240411 G96  0.2+  0.3-    240414 I52  0.3+  0.5+    240529 V06  0.0   0.0
240411 H01  0.0   0.0     240414 I52  0.0   0.3+    240529 V06  0.1+  0.1+
240411 H01  0.0   0.0     240417 V06  0.4+  0.2+    240529 V06  0.0   0.1+
240411 H01  0.0   0.0     240417 V06  0.0   0.2+    240610 291  0.1+  0.3+
240411 H01  0.0   0.0     240417 V06  0.1+  0.0     240610 291  0.3+  0.5+
240411 V06  0.2-  0.1+    240417 V06  0.0   0.1+    240610 291  0.0   0.4+
240411 V06  0.0   0.0     240430 I52  0.0   0.1+    240710 807  0.4+  0.5+
240411 V06  0.1-  0.1-    240430 I52  0.4-  0.3+    240710 807  0.1-  0.1+
240411 V06  0.2-  0.2+    240430 I52  0.2-  0.2-    240711 807  0.2-  0.2-
Ephemeris:
2024 GC5                 a,e,i = 2.45, 0.51, 10                  q = 1.2068
Date    TT    R. A. (2000) Decl.     Delta      r    Elong.  Phase     V
2024 07 05    13 17 59.7 -01 27 49   0.7296  1.3059    95.4    50.8    21.9
...
2024 07 20    13 44 57.8 -08 15 47   0.7349  1.2528    89.9    54.2    21.9
...
2024 07 28    14 03 14.6 -12 08 54   0.7376  1.2321    87.8    55.4    21.9
...
2024 08 03    14 18 48.3 -15 07 41   0.7402  1.2204    86.6    56.1    21.9
2024 08 04    14 21 33.6 -15 37 38   0.7407  1.2188    86.5    56.2    21.9
2024 08 05    14 24 21.7 -16 07 35   0.7413  1.2173    86.3    56.3    21.9
...
2024 08 11    14 42 10.3 -19 06 51   0.7453  1.2103    85.5    56.6    21.9
...
2024 08 19    15 08 39.9 -23 00 06   0.7531  1.2068    84.9    56.6    21.9
...
2024 09 03    16 06 59.8 -29 28 58   0.7799  1.2178    84.8    55.6    22.0
A. U. Tomatic                (C) Copyright 2024 MPC           M.P.E.C. 2024-P59
    
    
More information about the Iaude
mailing list